User: anonymous   Login
Location: Columbia
(38.9520°N, 92.3340°W)
Time: 12:59:49
(UTC-05:00)
Language:

Meteor 1-4 Rocket - Orbit

View from above orbital plane
View from above orbital plane
View from above satellite
View from above satellite

Ground track
Ground track

The orbit data is extracted from the following two-line orbital elements,

1 04394U 70037B   16242.15707410  .00001490  00000-0  53334-4 0  9993
2 04394  81.2450 357.4874 0042489  41.8792 318.5679 15.27209466520185
Epoch (UTC): 29 August 2016 03:46:11
Eccentricity: 0.0042489
inclination: 81.2450°
perigee height: 455 km
apogee height: 513 km
right ascension of ascending node: 357.4874°
argument of perigee: 41.8792°
revolutions per day: 15.27209466
mean anomaly at epoch: 318.5679°
orbit number at epoch: 52018

The dashed part of the orbit path shows where the satellite is in the earth's shadow,  

DLR